Regional Weather Roundup
Issued by NWS Newport/Morehead, NC

Current Version | Previous Version | Text Only | Print | Product List | Glossary On
Versions: 1 2 3 4 5 6 7 8 9 10 11 12 13 14 15 16 17 18 19 20 21 22 23 24 25 26 27 28 29 30 31 32 33 34 35 36 37 38 39 40 41 42 43 44 45 46 47 48 49 50
000
ASUS42 KMHX 271725
RWRMHX
WEATHER ROUNDUP FOR EASTERN NORTH CAROLINA
NATIONAL WEATHER SERVICE NEWPORT/MOREHEAD CITY NC
100 PM EDT SAT AUG 27 2016

NOTE: "FAIR" INDICATES FEW OR NO CLOUDS BELOW 12,000 FEET
WITH NO SIGNIFICANT WEATHER AND/OR OBSTRUCTIONS TO VISIBILITY

NCZ015>017-031-032-045>047-102-103-271800-
NORTH COAST

CITY           SKY/WX    TMP DP  RH WIND       PRES   REMARKS
EDENTON        CLOUDY    90  76  63 S7        30.12R HX 100
ELIZABETH CITY MOSUNNY   91  71  51 NE10      30.11S
KITTY HAWK     SUNNY     89  80  74 N8        30.10S HX 106
MANTEO         SUNNY     86  75  69 E6        30.11S

$$

NCZ045>047-081-094-103-104-271800-
CENTRAL COAST

CITY           SKY/WX    TMP DP  RH WIND       PRES   REMARKS
FRISCO         SUNNY     88  74  63 VRB3      30.11S

$$

NCZ095-097-098-100-101-271800-
SOUTHERN COAST

CITY           SKY/WX    TMP DP  RH WIND       PRES   REMARKS
BEAUFORT       MOSUNNY   89  76  65 E9        30.09F HX 100
CEDAR ISLAND   NOT AVBL
JACKSONVILLE   MOSUNNY   91  74  57 E7        30.09F HX 100
PINEY ISLAND   NOT AVBL
WILMINGTON     SUNNY     89  73  59 E7        30.10F


$$

NCZ011>013-027>030-043-044-078>080-089-090>093-098-271800-
COASTAL PLAIN

CITY           SKY/WX    TMP DP  RH WIND       PRES   REMARKS
AHOSKIE        SUNNY     90  73  56 E6        30.12S
CLINTON        MOSUNNY   90  76  63 N3        30.11F HX 101
ELIZABETHTOWN  MOSUNNY   89  74  59 CALM      30.10F
GOLDSBORO      SUNNY     92  75  57 VRB3      30.10F HX 102
GREENVILLE     MOSUNNY   95  73  49 SE5       30.12S HX 105
HAVELOCK       SUNNY     91  75  59 VRB3      30.11F HX 101
KENANSVILLE    CLOUDY    88  75  66 CALM      30.11F
KINSTON        SUNNY     91  73  55 E5        30.12F HX 100
NEW BERN       SUNNY     91  75  59 NW6       30.11F HX 101
RICHLANDS      CLOUDY    89  75  63 NE3       30.11F
ROCKY MOUNT    SUNNY     92  75  57 VRB3      30.11F HX 103
WASHINGTON     SUNNY     90  75  62 N3        30.10F HX 100
WHITEVILLE     MOSUNNY   90  73  57 E8        30.10F

$$

AMZ130-135-150-152-154-156-158-170-250-252-270-ANZ085-086-088-633-658-670-271800-
MARINE OBSERVATIONS

STATION/POSITION TIME  TEMP    WIND        PRES    WAVE   SWELL
                       AIR SEA DIR/SP/G            HT/PER HT/PER
                 (UTC) (F)     (DEG/KT/KT) (MB)    (FT/S) (FT/S)
CHESAPEAKE LIGHT NOT AVBL
64 E VA BEACH    1650   81 81   40/ 10/ 12 1019.2    2/10   2/10
DUCK             1700   80 63   10/  6/  8 1019.2
2 E DUCK         1611      79                N/A     2/10   2/11
OREGON INLET     1700   83 82   10/  8/ 10 1019.4
13E OREGON INLT  1700      82                N/A     3/ 9   3/ 9
HATTERAS CG      1700   83 83  340/  4/  5 1019.2
DIAMOND BUOY     1650   82 85   20/  6/  8 1019.4    2/ 9   2/ 9
CAPE LOOKOUT     1700   84     100/  6/  7 1019.1
BEAUFORT LAB     1700   87 82   50/  3/  8 1018.5
30 SE NEW RVR IN 1708   83 85   60/  6/  8 1019.3
30 SE NEW RVR IN 1625      84                N/A     4/10   2/11
27 SE WRIGHTSVLE 1708   83 84   60/  6/ 10 1019.6
5 SE WRIGHTSVLE  1708   83 84   90/  4/  8 1020.4
225 S CAPE HAT   1650   82 84   60/ 16/ 17 1017.6    4/ 8   3/ 8
41 SE CHARLESTON 1650   83 84   70/ 14/ 16 1017.9    5/10   3/10

$$




USA.gov is the U.S. government's official web portal to all federal, state and local government web resources and services.